Powrót do katalogu

ARIANE 44L R/B

AktywnyHEO
NORAD 20316·ROCKET BODY·🇫🇷 France

Wystrzelony Oct 27, 1989 z Guiana Space Centre

Loading…

Następne Przeloty (najbliższe 24 godziny)

TLE

ŚwieżeSource: Space-Track

Epoka: Sep 14, 2026, 09:38 UTC

1 20316U 89087B   26257.40195230  .00495125 -83544-6  16944-2 0  9993
2 20316   7.2450  45.5122 4577896 244.8619  61.4597  6.55930264390117

Śledź ARIANE 44L R/B w czasie rzeczywistym z AllMySat

Download on the App Store